Regional Weather Roundup
Issued by NWS

Home | Current Version | Previous Version | Graphics & Text | Print | Product List | Glossary On
Versions: 1 2 3 4 5 6 7 8 9 10 11 12 13 14 15 16 17 18 19 20 21 22 23 24 25 26 27 28 29 30 31 32 33 34 35 36 37 38 39 40 41 42 43 44 45 46 47 48 49 50
000
ASUS43 KLOT 221809
RWRIL

ILLINOIS REGIONAL WEATHER ROUNDUP
NATIONAL WEATHER SERVICE CHICAGO/ROMEOVILLE IL
100 PM CDT THU JUN 22 2017

NOTE: "FAIR" INDICATES FEW OR NO CLOUDS BELOW 12,000 FEET WITH NO
SIGNIFICANT WEATHER AND/OR OBSTRUCTIONS TO VISIBILITY.

* THESE STATIONS ARE NOT UNDER NWS QUALITY CONTROL. THEY ALSO MAY NOT
  REPORT WEATHER SUCH AS PRECIPITATION OR FOG.

ILZ001-002-007-009-015-016-024-221900-
NORTHWEST ILLINOIS

CITY           SKY/WX    TMP DP  RH WIND       PRES   REMARKS
MOLINE         CLOUDY    86  69  56 S10       29.75F HX  90
6HR MIN TEMP:  74; 6HR MAX TEMP:  86;

STERLING*      PTSUNNY   84  71  65 VRB7      29.79F HX  89
SAVANNA*       MOSUNNY   85  69  58 S10G17    29.78F HX  89
$$

ILZ003-004-008-010-011-017-018-221900-
NORTH CENTRAL ILLINOIS

CITY           SKY/WX    TMP DP  RH WIND       PRES   REMARKS
ROCKFORD       PTSUNNY   86  68  54 SW14G22   29.81F HX  89
6HR MIN TEMP:  75; 6HR MAX TEMP:  86; 6HR PCP: TRACE;

FREEPORT*      MOSUNNY   80  67  66 S14       29.80F HX  82
ROCHELLE*      PTSUNNY   84  69  59 SW12G17   29.81F HX  88
DE KALB*       MOSUNNY   86  69  56 SW15G23   29.82F HX  90
PERU*          CLOUDY    83  71  65 S15       29.81F HX  88
$$

ILZ005-006-012>014-019>023-221900-
NORTHEAST ILLINOIS

CITY           SKY/WX    TMP DP  RH WIND       PRES   REMARKS
CHICAGO-OHARE  PTSUNNY   87  66  49 S20G25    29.80F HX  89
6HR MIN TEMP:  77; 6HR MAX TEMP:  88;

CHICAGO-MIDWAY CLOUDY    85  70  60 SW15      29.82S HX  89
6HR MIN TEMP:  77; 6HR MAX TEMP:  87;

AURORA         CLOUDY    83  70  64 S12G24    29.82F HX  87
6HR MIN TEMP:  74; 6HR MAX TEMP:  85;

LANSING*       CLOUDY    84  69  59 S15G23    29.83F HX  88
JOLIET*        CLOUDY    86  73  65 S13       29.83F HX  92
WAUKEGAN       CLOUDY    84  67  56 SW16G25   29.79F HX  86
6HR MIN TEMP:  77; 6HR MAX TEMP:  84;

DUPAGE AIRPORT MOSUNNY   85  70  60 SW18      29.81F HX  89
6HR MIN TEMP:  75; 6HR MAX TEMP:  85;

WHEELING       MOSUNNY   85  68  56 SW15G24   29.81F HX  88
6HR MIN TEMP:  75; 6HR MAX TEMP:  86; 6HR PCP: TRACE;

MORRIS*        CLOUDY    85  70  60 S13       29.81F HX  90
ROMEOVILLE*    CLOUDY    84  68  57 SW12      29.83F HX  87
NORTHERLY ISL    N/A     84  64  50 S12         N/A  HX  85
$$

LMZ740>746-221900-
SOUTHERN LAKE MICHIGAN

STATION/POSITION SKY/WX   TEMP    WIND        PRES    VSBY  WAVE
                          AIR SEA DIR/SP/G                  HT/PER
                          (F)     (DEG/KT/KT) (MB)    (MI)  (FT/S)
SOUTHERN BUOY              66 61  200/ 16/ 17 1009.0          2/ 4
WILMETTE HARBOR            78 65  220/ 14/ 17   N/A           1/ 2
HARRISON CRIB              81     210/ 22/ 24   N/A
BURNHAM HARBOR             84                   N/A
CALUMET HARBOR             82     190/ 11/ 18 1009.5F
BURNS HARBOR               82     200/ 20/ 26 1010.2F
MICHIGAN CITY              81     190/ 19/ 23   N/A
MICHIGAN CITY 6N           76 68  210/ 12/ 19   N/A           1/ 2
ST. JOSEPH                 76 69  230/ 12/ 16 1009.6          2/ 3
$$

ILZ025>027-034>036-040-047-049-050-058-095>099-221900-
WEST-CENTRAL ILLINOIS

CITY           SKY/WX    TMP DP  RH WIND       PRES   REMARKS
QUINCY         CLOUDY    81  71  71 S14       29.79F HX  85
GALESBURG*     CLOUDY    83  71  67 S7        29.80F HX  88
MACOMB*        CLOUDY    81  70  69 S10       29.82F HX  84
JACKSONVILLE*  CLOUDY    81  70  71 S12       29.81F HX  84
PITTSFIELD*    CLOUDY    81  73  75 S10G17    29.81F HX  86
$$

ILZ028>032-037-038-041>044-048-051>054-059>061-221900-
CENTRAL ILLINOIS

CITY           SKY/WX    TMP DP  RH WIND       PRES   REMARKS
PONTIAC        PTSUNNY   85  74  70 S17G26    29.84F HX  92
BLOOMINGTON    CLOUDY    82  72  71 S20       29.85F HX  87
DECATUR        CLOUDY    80  71  74 S13       29.86F HX  84
PEORIA         CLOUDY    81  71  71 S15G21    29.81F HX  85
6HR MIN TEMP:  75; 6HR MAX TEMP:  83;

LACON*         PTSUNNY   82  72  71 S13       29.81S HX  86
LINCOLN*       CLOUDY    84  73  69 S14       29.83F HX  89
SPRINGFIELD    CLOUDY    83  72  69 S15G25    29.83F HX  88
6HR MIN TEMP:  76; 6HR MAX TEMP:  83;

TAYLORVILLE    CLOUDY    80  71  75 S9G21     29.85F HX  83
6HR MIN TEMP:  73; 6HR MAX TEMP:  80;

$$

ILZ033-039-045-046-055>057-062-063-221900-
EAST-CENTRAL ILLINOIS

CITY           SKY/WX    TMP DP  RH WIND       PRES   REMARKS
CHAMPAIGN      CLOUDY    82  70  66 S20G25    29.88S HX  86
RANTOUL*       CLOUDY    84  72  66 S18G24    29.87F HX  90
MATTOON        PTSUNNY   82  72  71 S14G23    29.88F HX  87
PARIS*         CLOUDY    80  72  77 S12G21    29.91S HX  83
$$

ILZ079-100>102-221900-
SOUTHWEST ILLINOIS

CITY           SKY/WX    TMP DP  RH WIND       PRES   REMARKS
ALTON          CLOUDY    79  72  78 S14       29.84F HX  82
BELLEVILLE     CLOUDY    79  73  83 S12       29.85F HX  82
CAHOKIA*       PTSUNNY   82  71  69 S12G23    29.83F HX  86
SPARTA*        DRIZZLE   74  73  94 SE10G17   29.87F
$$

ILZ064>066-069>071-074>076-080>082-084>086-088>090-092>094-221900-
SOUTH-CENTRAL ILLINOIS

CITY           SKY/WX    TMP DP  RH WIND       PRES   REMARKS
CARBONDALE     RAIN      74  74 100 SE8       29.86F FOG
6HR MIN TEMP:  74; 6HR MAX TEMP:  78; 6HR PCP:  0.18;

CAIRO*         CLOUDY    76  74  94 SE12      29.86F
EFFINGHAM*     CLOUDY    77  76  95 SE10      29.90F
MARION         RAIN      77  75  94 SE9       29.89F
MT. VERNON     CLOUDY    79  72  79 S13       29.87F HX  82
CENTRALIA*     DRIZZLE   77  74  91 SE8       29.87F
SALEM*         CLOUDY    80  72  77 SE7       29.87F HX  84
METROPOLIS*      N/A    N/A N/A N/A MISG        N/A
$$

ILZ067-068-072-073-078-083-087-091-221900-
SOUTHEAST ILLINOIS

CITY           SKY/WX    TMP DP  RH WIND       PRES   REMARKS
LAWRENCEVILLE  CLOUDY    79  71  76 S21G28    29.92F HX  82
FLORA*         CLOUDY    82  72  72 S16       29.89F HX  86
FAIRFIELD*     CLOUDY    78  71  77 SE9       29.88F HAZE    HX  81
HARRISBURG*    CLOUDY    77  72  83 S9        29.89F
ROBINSON*      CLOUDY    78  72  82 S16       29.92F HX  80
CARMI*         CLOUDY    76  71  83 SE16      29.90F
$$

ABBREVIATIONS USED IN REMARKS
   TC - TEMPERATURE IN CELSIUS
  WCI - WIND CHILL INDEX
   HX - HEAT INDEX
  VSB - VISIBILITY
$$





USA.gov is the U.S. government's official web portal to all federal, state and local government web resources and services.